Regional Weather Roundup
Issued by NWS

Home | Current Version | Previous Version | Graphics & Text | Print | Product List | Glossary On
Versions: 1 2 3 4 5 6 7 8 9 10 11 12 13 14 15 16 17 18 19 20 21 22 23 24 25 26 27 28 29 30 31 32 33 34 35 36 37 38 39 40 41 42 43 44 45 46 47 48 49 50
000
ASUS43 KMKX 010059
RWRWI

WISCONSIN REGIONAL WEATHER ROUNDUP
NATIONAL WEATHER SERVICE MILWAUKEE/SULLIVAN WI
700 PM CST SAT JAN 31 2015

NOTE: "FAIR" INDICATES FEW OR NO CLOUDS BELOW 12,000 FEET WITH NO
SIGNIFICANT WEATHER AND/OR OBSTRUCTIONS TO VISIBILITY.

WIZ001-002-006>008-014>016-023>028-010200-
NORTHWEST WISCONSIN

CITY           SKY/WX    TMP DP  RH WIND       PRES   REMARKS
SUPERIOR ARPT  CLOUDY    17   1  49 NE9       30.34R WCI   6
ASHLAND        MOCLDY    14   4  64 N12       30.34R WCI   0
HAYWARD        MOCLDY    16   5  62 NE12      30.27R WCI   3
SIREN          CLOUDY    21   7  56 NE13G20   30.25S WCI   8
CUMBERLAND     CLOUDY    23  10  58 NE9       30.21S WCI  13
RICE LAKE      CLOUDY    23  13  65 NE9       30.23S WCI  13
CHETEK         CLOUDY    23  13  65 NE7       30.22S WCI  14
LADYSMITH      CLOUDY    19  11  70 NE12      30.25R WCI   7
EAU CLAIRE     NOT AVBL
MENOMONIE      CLOUDY    26  16  64 NE12G17   30.20S WCI  16
NEW RICHMOND   CLOUDY    25  15  67 NE9       30.21S WCI  15
OSCEOLA        CLOUDY    26  14  59 NE6       30.25S WCI  19
$$

WIZ003>005-009-010-017-018-010200-
NORTH CENTRAL WISCONSIN

CITY           SKY/WX    TMP DP  RH WIND       PRES   REMARKS
MANITOWISH WTR CLOUDY    13   6  74 NE8       30.23S WCI   2
ARBOR VITAE    FLURRIES  17   9  71 NE9       30.22S WCI   5
WOODRUFF       FLURRIES  17   9  71 NE9       30.22S WCI   5
RHINELANDER    PTCLDY    15   7  70 NE7       30.22R WCI   5
EAGLE RIVER    CLOUDY    14   4  66 N6        30.22S WCI   5
LAND O LAKES   FLURRIES  14   8  77 N9        30.24R WCI   1
PHILLIPS       CLOUDY    14   7  73 NE8       30.22S WCI   3
TOMAHAWK       CLOUDY    19  11  72 N7        30.21S WCI   9
MEDFORD        CLOUDY    20  12  70 NE9       30.18S WCI  10
MERRILL        CLOUDY    22  13  69 NE9       30.20S WCI  11
$$

WIZ029-030-035-036-043>047-010200-
CENTRAL WISCONSIN

CITY           SKY/WX    TMP DP  RH WIND       PRES   REMARKS
WAUSAU         CLOUDY    24  15  68 NE6       30.18S WCI  17
MOSINEE        CLOUDY    25  21  86 N6        30.19S WCI  18
MARSHFIELD     CLOUDY    25  16  68 NE12      30.18S WCI  14
STEVENS POINT  CLOUDY    24  17  73 NE9       30.19S WCI  15
WAUPACA        CLOUDY    30  20  67 CALM      30.21R
WAUTOMA        NOT AVBL
WISC RAPIDS    CLOUDY    27  17  66 NE5       30.20S WCI  22
CAMP DOUGLAS   NOT AVBL
$$

WIZ011>013-019>022-031-037>040-048>050-010200-
NORTHEAST WISCONSIN

CITY           SKY/WX    TMP DP  RH WIND       PRES   REMARKS
ANTIGO         CLOUDY    20  13  73 N12       30.19S WCI   8
SHAWANO        CLOUDY    29  20  69 NE8       30.23R WCI  21
OCONTO         CLOUDY    24  19  82 CALM      30.25R
STURGEON BAY   CLOUDY    21  12  68 N17       30.27R WCI   7
GREEN BAY      CLOUDY    27  20  75 NE6       30.23R WCI  20
MANITOWOC      NOT AVBL
APPLETON       CLOUDY    27  18  69 VRB5      30.21R WCI  21
CLINTONVILLE   CLOUDY    28  19  69 NE5       30.22R WCI  23
OSHKOSH        CLOUDY    27  19  72 E5        30.21R WCI  22
$$

WIZ032>034-041-042-053>061-010200-
SOUTHWEST WISCONSIN

CITY           SKY/WX    TMP DP  RH WIND       PRES   REMARKS
LA CROSSE      NOT AVBL
SPARTA         CLOUDY    28  21  74 NE8       30.19R WCI  20
VIROQUA        CLOUDY    28  25  87 NE8       30.13S WCI  20
BOSCOBEL       LGT SNOW  32  25  75 E6        30.15S WCI  26
PRAIRIE DU CHI MIX PCPN  32  26  78 CALM      30.14S
PLATTEVILLE    CLOUDY    31  29  92 E5        30.12S WCI  26
$$

WIZ056-057-062-063-064-067-068-010200-
SOUTH CENTRAL WISCONSIN

CITY           SKY/WX    TMP DP  RH WIND       PRES   REMARKS
REEDSBURG      CLOUDY    29  23  79 NE7       30.17R WCI  22
BARABOO/DELLS  CLOUDY    28  22  78 NE8       30.16S WCI  20
LONE ROCK      LGT SNOW  30  25  80 NE9       30.16S WCI  22
MINERAL POINT  LGT SNOW  32  28  86 E5        30.12S WCI  27
MADISON        FLURRIES  30  22  72 NE9       30.17R WCI  22
MIDDLETON      CLOUDY    32  25  73 NE8       30.16R WCI  25
WATERTOWN      CLOUDY    30  24  77 N7        30.16S WCI  23
MONROE         CLOUDY    32  27  80 E3        30.13S
JANESVILLE     CLOUDY    34  27  75 E8        30.15S WCI  27
$$

WIZ051-052-058>065-066-070>072-010200-
SOUTHEAST WISCONSIN

CITY           SKY/WX    TMP DP  RH WIND       PRES   REMARKS
MILWAUKEE      CLOUDY    32  22  66 NE9       30.19R WCI  24
WAUKESHA       CLOUDY    28  21  74 NE10      30.18R WCI  19
MILWAUKEE/TIMM NOT AVBL
RACINE         CLOUDY    32  24  72 NE8       30.20R WCI  25
BURLINGTON     CLOUDY    31  23  72 E7        30.17R WCI  24
KENOSHA        CLOUDY    32  24  72 E6        30.18R WCI  26
FOND DU LAC    CLOUDY    27  19  72 NE8       30.21R WCI  19
SHEBOYGAN      CLOUDY    27  19  72 NE9       30.22R WCI  18
WEST BEND      CLOUDY    28  21  74 NE8       30.19R WCI  20
JUNEAU         CLOUDY    27  20  77 N8        30.19S WCI  18
$$

LSZ147-162-010200-
LAKE SUPERIOR

STATION/POSITION TIME  TEMP    WIND        PRES    WAVE
                       AIR SEA DIR/SP/G            HT/PER
                 (UTC) (F)     (DEG/KT/KT) (MB)    (FT/S)
DEVILS ISLAND    0000   17      30/ 14/ 17 1029.1R
PORT WING        0000   19      60/ 12/ 19 1027.1
SAXON HARBOR     0000   19      40/ 14/ 16 1026.4R
$$

LMZ867-665-643>646-010200-
LAKE MICHIGAN

STATION/POSITION TIME  TEMP    WIND        PRES    WAVE
                       AIR SEA DIR/SP/G            HT/PER
                 (UTC) (F)     (DEG/KT/KT) (MB)    (FT/S)
NORTHPORT PIER   0024   20     360/ 18/ 21 1025.4R
SISTER BAY       2313   24      10/ 14/ 20   N/A
KEWAUNEE LAKESHO 0000   27     340/  1/  3 1022.5R
SHEBOYGAN LAKESH 0000   28      20/ 13/ 14 1024.1R
PORT WASHINGTON  0040   30      20/  7/ 13 1023.7R
MILWAUKEE LAKESH 0000   32      50/  9/ 10   N/A
KENOSHA   LAKESH 0000   33      70/  4/  5 1022.0S
$$

TC  - TEMPERATURE IN CELSIUS
VSB - VISIBILITY IN STATUTE MILES
WCI - WIND CHILL INDEX
HX  - HEAT INDEX




USA.gov is the U.S. government's official web portal to all federal, state and local government web resources and services.